Regional Weather Roundup
Issued by NWS Albany, NY

Home | Current Version | Previous Version | Text Only | Print | Product List | Glossary On
Versions: 1 2 3 4 5 6 7 8 9 10 11 12 13 14 15 16 17 18 19 20 21 22 23 24 25 26 27 28 29 30 31 32 33 34 35 36
000
ASUS41 KALY 221710
RWRALY

NEW YORK STATE HOURLY WEATHER ROUNDUP
NATIONAL WEATHER SERVICE ALBANY NY
100 PM EDT WED OCT 22 2014

NOTE: "FAIR" INDICATES FEW OR NO CLOUDS BELOW 12,000 FEET WITH NO
SIGNIFICANT WEATHER AND/OR NO OBSTRUCTIONS TO VISIBILITY.

NYZ032-033-038>043-046>054-057>066-NYZ062>081-221800-
EAST


CITY           SKY/WX    TMP DP  RH WIND       PRES   REMARKS
ALBANY         CLOUDY    53  45  74 N9        30.06F
GLENS FALLS    CLOUDY    54  45  71 N10       30.09F
POUGHKEEPSIE   CLOUDY    53  47  79 N10       29.97F
NEWBURGH       CLOUDY    52  48  87 NE18G29   29.98F
MONTGOMERY     CLOUDY    54  47  77 NE17G28   29.96F
WHITE PLAINS   CLOUDY    56  48  74 NE15G23   29.90F
ISLIP          LGT RAIN  56  52  86 N20       29.84F
NEW YORK CITY  CLOUDY    57  50  77 NE18      29.88F
CENTRAL PARK   CLOUDY    56  50  80 NE9G18    29.92F
$$

NYZ005>009-017-018-044>046-055-056-221800-
CENTRAL


CITY           SKY/WX    TMP DP  RH WIND       PRES   REMARKS
FULTON         PTSUNNY   53  44  71 N13       30.16F
SYRACUSE       CLOUDY    54  45  71 N13       30.13F
ROME           CLOUDY    52  45  77 N10       30.12F
ELMIRA         CLOUDY    48  45  89 N8G18     30.12S
BINGHAMTON     CLOUDY    49  45  86 N14       30.06F
MONTICELLO     CLOUDY    52  46  82 N10       29.99F
$$

NYZ026>034-041>043-221800-
NORTH


CITY           SKY/WX    TMP DP  RH WIND       PRES   REMARKS
WATERTOWN      CLOUDY    51  38  60 NE17      30.20S
FORT DRUM      NOT AVBL
MASSENA        CLOUDY    48  39  71 NE14      30.27F
SARANAC LAKE   CLOUDY    43  41  93 E7        30.16F
PLATTSBURGH    CLOUDY    47  42  83 N18       30.21F
$$

NYZ001>004-010>016-019>021-221800-
WEST


CITY           SKY/WX    TMP DP  RH WIND       PRES   REMARKS
NIAGARA FALLS  PTSUNNY   49  40  71 NE13      30.23F
BUFFALO        CLOUDY    47  39  74 N12       30.22F
DUNKIRK        CLOUDY    47  41  80 N10       30.22F
JAMESTOWN      CLOUDY    43  39  87 N12G18    30.18F
WELLSVILLE     FOG       42  41  96 N8        30.16R VSB 1/4
ROCHESTER      CLOUDY    48  42  80 NE15      30.22R
PENN YAN       CLOUDY    48  44  86 NW12G20   30.16F
$$

             KEY
       WCI = WIND CHILL INDEX
       VSB = VISIBILITY
       HX  = HEAT INDEX
$$



USA.gov is the U.S. government's official web portal to all federal, state and local government web resources and services.